Starlink 6030

operational
NORAD ID: 56107 Int'l Des: 2023-046 Owner: SPXS Country: US Constellation: starlink
LEOCIRCULAR

Starlink 6030について

説明を読み込み中...

リアルタイム位置

3D地球を読み込み中...

次回通過

高度履歴

Altitude vs Time

uPlot chart will show altitude changes over time

軌道要素

1 56107U 23046Q 25350.98614098 -.00000278 00000-0 -55117-5 0 9997
2 56107 43.0028 248.1288 0001174 271.0072 89.0636 15.02539368149629
Epoch: Dec 16, 2025 • Age: 10 hours

現在のステータス

高度 559.4 km
速度 7.58 km/s
衛星直下点 -4.38°S, 16.85°E
打ち上げ日 Mar 29, 2023
運用期間 2.7 years
タイプ internet

技術仕様

分類 Payload
質量 305.00 kg
乾燥質量 290.00 kg
総質量 305.00 kg
長さ 0.20 m
直径 2.80 m
スパン 9.00 m
形状 Box + pan
製造者 SPXS
バスタイプ Starlink
フェーズステータス In Orbit
所有者/国 SPXS/US

大規模コンステレーション

Loading constellations...